Time,TemperatureF,DewpointF,PressureIn,WindDirection,WindDirectionDegrees,WindSpeedMPH,WindSpeedGustMPH,Humidity,HourlyPrecipIn,Conditions,Clouds,dailyrainin,SoftwareType,DateUTC
2013-04-16 00:02:00,73.6,72.2,25.28,North,0,0.0,0.0,94,0.00,,,-99.99,Homeseer,2013-04-16 04:02:00,
2013-04-16 00:12:00,73.8,72.1,25.28,North,0,0.0,0.0,93,0.00,,,-99.99,Homeseer,2013-04-16 04:12:00,
2013-04-16 00:22:00,73.6,71.9,25.28,NW,315,0.0,0.0,93,0.00,,,-99.99,Homeseer,2013-04-16 04:22:00,
2013-04-16 00:32:00,73.6,71.9,25.28,WNW,297,0.0,0.0,93,0.00,,,-99.99,Homeseer,2013-04-16 04:32:00,
2013-04-16 00:42:00,73.4,72.0,25.28,WNW,297,0.0,0.0,94,0.00,,,-99.99,Homeseer,2013-04-16 04:42:00,
2013-04-16 00:52:00,73.6,72.2,25.28,WNW,297,0.0,0.0,94,0.00,,,-99.99,Homeseer,2013-04-16 04:52:00,
2013-04-16 01:02:00,73.6,72.2,25.28,WNW,297,0.0,0.0,94,0.00,,,-99.99,Homeseer,2013-04-16 05:02:00,
2013-04-16 01:12:00,73.8,72.4,25.28,WNW,297,0.0,0.0,94,0.00,,,-99.99,Homeseer,2013-04-16 05:12:00,
2013-04-16 01:22:00,73.6,72.2,25.28,WNW,297,0.0,0.0,94,0.00,,,-99.99,Homeseer,2013-04-16 05:22:00,
2013-04-16 01:32:00,73.4,72.0,25.28,WNW,297,0.0,0.0,94,0.00,,,-99.99,Homeseer,2013-04-16 05:32:00,
2013-04-16 01:42:00,73.4,72.2,25.28,WNW,297,0.0,0.0,95,0.00,,,-99.99,Homeseer,2013-04-16 05:42:00,
2013-04-16 01:52:00,73.4,72.4,25.28,North,0,0.0,0.0,96,0.00,,,-99.99,Homeseer,2013-04-16 05:52:00,
2013-04-16 02:02:00,73.4,72.4,25.28,North,0,0.0,0.0,96,0.00,,,-99.99,Homeseer,2013-04-16 06:02:00,
2013-04-16 02:12:00,73.4,72.4,25.28,North,0,0.0,0.0,96,0.00,,,-99.99,Homeseer,2013-04-16 06:12:00,
2013-04-16 02:22:00,73.4,72.4,25.28,WNW,297,0.0,0.0,96,0.00,,,-99.99,Homeseer,2013-04-16 06:22:00,
2013-04-16 02:32:00,73.8,72.8,25.28,NNE,22,0.0,0.0,96,0.00,,,-99.99,Homeseer,2013-04-16 06:32:00,
2013-04-16 02:42:00,73.9,73.2,25.28,North,0,0.0,0.0,97,0.00,,,-99.99,Homeseer,2013-04-16 06:42:00,
2013-04-16 02:52:00,73.9,73.2,25.28,East,90,0.0,0.0,97,0.00,,,-99.99,Homeseer,2013-04-16 06:52:00,
2013-04-16 03:02:00,74.1,73.4,25.28,ESE,112,0.0,0.0,97,0.00,,,-99.99,Homeseer,2013-04-16 07:02:00,
2013-04-16 03:12:00,74.3,73.6,25.28,ENE,67,1.1,0.0,97,0.00,,,-99.99,Homeseer,2013-04-16 07:12:00,
2013-04-16 03:22:00,74.1,73.4,25.28,ENE,67,0.0,0.0,97,0.00,,,-99.99,Homeseer,2013-04-16 07:22:00,
2013-04-16 03:32:00,73.9,73.2,25.28,North,0,0.0,0.0,97,0.00,,,-99.99,Homeseer,2013-04-16 07:32:00,
2013-04-16 03:42:00,73.8,73.1,25.28,North,0,0.0,0.0,97,0.00,,,-99.99,Homeseer,2013-04-16 07:42:00,
2013-04-16 03:52:00,73.6,72.9,25.28,North,0,0.0,0.0,97,0.00,,,-99.99,Homeseer,2013-04-16 07:52:00,
2013-04-16 04:02:00,73.6,72.9,25.28,North,0,0.0,0.0,97,0.00,,,-99.99,Homeseer,2013-04-16 08:02:00,
2013-04-16 04:12:00,73.6,72.9,25.28,North,0,0.0,0.0,97,0.00,,,-99.99,Homeseer,2013-04-16 08:12:00,
2013-04-16 04:22:00,73.6,72.9,25.28,North,0,0.0,0.0,97,0.00,,,-99.99,Homeseer,2013-04-16 08:22:00,
2013-04-16 04:32:00,73.6,72.9,25.28,North,0,0.0,0.0,97,0.00,,,-99.99,Homeseer,2013-04-16 08:32:00,
2013-04-16 04:42:00,73.6,73.1,25.28,North,0,0.0,0.0,98,0.00,,,-99.99,Homeseer,2013-04-16 08:42:00,
2013-04-16 04:52:00,73.6,73.1,25.28,North,0,0.0,0.0,98,0.00,,,-99.99,Homeseer,2013-04-16 08:52:00,
2013-04-16 05:02:00,73.6,72.9,25.28,North,0,0.0,0.0,97,0.00,,,-99.99,Homeseer,2013-04-16 09:02:00,
2013-04-16 05:12:00,73.6,73.1,25.28,North,0,0.0,0.0,98,0.00,,,-99.99,Homeseer,2013-04-16 09:12:00,
2013-04-16 05:22:00,73.8,73.3,25.28,North,0,0.0,0.0,98,0.00,,,-99.99,Homeseer,2013-04-16 09:22:00,
2013-04-16 05:32:00,73.8,73.3,25.28,North,0,0.0,0.0,98,0.00,,,-99.99,Homeseer,2013-04-16 09:32:00,
2013-04-16 05:42:00,73.8,73.3,25.28,North,0,0.0,0.0,98,0.00,,,-99.99,Homeseer,2013-04-16 09:42:00,
2013-04-16 05:52:00,74.1,73.6,25.28,North,0,0.0,0.0,98,0.00,,,-99.99,Homeseer,2013-04-16 09:52:00,
2013-04-16 06:02:00,75.2,74.7,25.28,ESE,112,2.9,2.9,98,0.00,,,-99.99,Homeseer,2013-04-16 10:02:00,
2013-04-16 06:12:00,75.6,75.1,25.28,ESE,112,2.2,2.2,98,0.00,,,-99.99,Homeseer,2013-04-16 10:12:00,
2013-04-16 06:22:00,75.9,75.4,25.28,SE,135,0.0,1.3,98,0.00,,,-99.99,Homeseer,2013-04-16 10:22:00,
2013-04-16 06:32:00,76.3,75.8,25.28,ESE,112,2.5,2.5,98,0.00,,,-99.99,Homeseer,2013-04-16 10:32:00,
2013-04-16 06:42:00,76.1,75.6,25.28,ESE,112,0.9,0.0,98,0.00,,,-99.99,Homeseer,2013-04-16 10:42:00,
2013-04-16 06:52:00,76.1,75.6,25.28,SE,135,1.1,1.1,98,0.00,,,-99.99,Homeseer,2013-04-16 10:52:00,
2013-04-16 07:02:00,76.3,75.8,25.28,ESE,112,4.0,4.0,98,0.00,,,-99.99,Homeseer,2013-04-16 11:02:00,
2013-04-16 07:12:00,76.5,76.0,25.28,North,0,4.0,0.0,98,0.00,,,-99.99,Homeseer,2013-04-16 11:12:00,
2013-04-16 07:22:00,76.6,76.1,25.28,East,90,1.1,1.1,98,0.00,,,-99.99,Homeseer,2013-04-16 11:22:00,
2013-04-16 07:32:00,76.8,76.1,25.28,South,180,2.0,2.0,97,0.00,,,-99.99,Homeseer,2013-04-16 11:32:00,
2013-04-16 07:42:00,77.2,76.5,25.28,SE,135,3.1,3.1,97,0.00,,,-99.99,Homeseer,2013-04-16 11:42:00,
2013-04-16 07:52:00,77.4,76.7,25.28,ESE,112,2.9,2.9,97,0.00,,,-99.99,Homeseer,2013-04-16 11:52:00,
2013-04-16 08:02:00,77.7,76.7,25.28,SSE,157,2.5,2.7,96,0.00,,,-99.99,Homeseer,2013-04-16 12:02:00,
2013-04-16 08:12:00,78.1,77.1,25.28,ESE,112,2.2,2.2,96,0.00,,,-99.99,Homeseer,2013-04-16 12:12:00,
2013-04-16 08:22:00,78.6,77.4,25.28,ESE,112,2.7,3.8,95,0.00,,,-99.99,Homeseer,2013-04-16 12:22:00,
2013-04-16 08:32:00,79.0,77.3,25.28,ESE,112,3.8,4.9,93,0.00,,,-99.99,Homeseer,2013-04-16 12:32:00,
2013-04-16 08:42:00,79.3,77.0,25.28,ESE,112,4.9,5.4,91,0.00,,,-99.99,Homeseer,2013-04-16 12:42:00,
2013-04-16 08:52:00,79.7,77.2,25.28,SE,135,3.8,4.9,90,0.00,,,-99.99,Homeseer,2013-04-16 12:52:00,
2013-04-16 09:02:00,80.1,77.6,25.28,SSE,157,4.0,4.0,90,0.00,,,-99.99,Homeseer,2013-04-16 13:02:00,
2013-04-16 09:12:00,80.4,77.6,25.28,ESE,112,4.3,5.4,89,0.00,,,-99.99,Homeseer,2013-04-16 13:12:00,
2013-04-16 09:22:00,81.0,77.6,25.28,East,90,3.4,3.4,87,0.00,,,-99.99,Homeseer,2013-04-16 13:22:00,
2013-04-16 09:32:00,80.8,76.9,25.28,ESE,112,3.8,3.8,85,0.00,,,-99.99,Homeseer,2013-04-16 13:32:00,
2013-04-16 09:42:00,81.3,77.1,25.28,SSE,157,4.7,4.7,84,0.00,,,-99.99,Homeseer,2013-04-16 13:42:00,
2013-04-16 09:52:00,81.0,77.1,25.28,SE,135,2.2,2.2,85,0.00,,,-99.99,Homeseer,2013-04-16 13:52:00,
2013-04-16 10:02:00,82.0,76.0,25.28,ESE,112,4.9,4.9,78,0.00,,,-99.99,Homeseer,2013-04-16 14:02:00,
2013-04-16 10:12:00,81.5,75.5,25.28,SSE,157,4.7,6.3,78,0.00,,,-99.99,Homeseer,2013-04-16 14:12:00,
2013-04-16 10:22:00,82.6,75.6,25.28,SE,135,6.0,6.0,75,0.00,,,-99.99,Homeseer,2013-04-16 14:22:00,
2013-04-16 10:32:00,82.6,74.7,25.28,SE,135,5.4,5.8,72,0.00,,,-99.99,Homeseer,2013-04-16 14:32:00,
2013-04-16 10:42:00,83.3,75.0,25.28,SSE,157,4.3,4.3,71,0.00,,,-99.99,Homeseer,2013-04-16 14:42:00,
2013-04-16 10:52:00,83.3,75.7,25.28,SE,135,3.1,3.6,73,0.00,,,-99.99,Homeseer,2013-04-16 14:52:00,
2013-04-16 11:02:00,83.8,75.8,25.28,SSE,157,4.7,4.7,72,0.00,,,-99.99,Homeseer,2013-04-16 15:02:00,
2013-04-16 11:12:00,83.7,74.7,25.28,SSE,157,4.9,4.9,69,0.00,,,-99.99,Homeseer,2013-04-16 15:12:00,
2013-04-16 11:22:00,83.7,75.7,25.28,ESE,112,5.8,5.8,72,0.00,,,-99.99,Homeseer,2013-04-16 15:22:00,
2013-04-16 11:32:00,83.8,74.5,25.28,ESE,112,5.8,5.8,68,0.00,,,-99.99,Homeseer,2013-04-16 15:32:00,
2013-04-16 11:42:00,84.0,74.6,25.28,SSE,157,4.5,5.4,68,0.00,,,-99.99,Homeseer,2013-04-16 15:42:00,
2013-04-16 11:52:00,84.0,74.6,25.28,ESE,112,5.6,5.6,68,0.00,,,-99.99,Homeseer,2013-04-16 15:52:00,
2013-04-16 12:02:00,84.0,74.6,25.28,ESE,112,5.4,5.8,68,0.00,,,-99.99,Homeseer,2013-04-16 16:02:00,
2013-04-16 12:12:00,84.0,74.6,25.28,SE,135,6.3,6.3,68,0.00,,,-99.99,Homeseer,2013-04-16 16:12:00,
2013-04-16 12:22:00,84.0,74.6,25.28,ESE,112,4.0,4.0,68,0.00,,,-99.99,Homeseer,2013-04-16 16:22:00,
2013-04-16 12:32:00,84.0,74.6,25.28,SE,135,4.9,6.5,68,0.00,,,-99.99,Homeseer,2013-04-16 16:32:00,
2013-04-16 12:42:00,0.0,0.0,25.28,South,180,3.1,4.3,0,0.00,,,-99.99,Homeseer,2013-04-16 16:42:00,
2013-04-16 12:52:00,0.0,0.0,25.28,ESE,112,6.3,6.3,0,0.00,,,-99.99,Homeseer,2013-04-16 16:52:00,
2013-04-16 13:02:00,0.0,0.0,25.28,SE,135,6.3,6.3,0,0.00,,,-99.99,Homeseer,2013-04-16 17:02:00,
2013-04-16 13:12:00,0.0,0.0,25.28,SE,135,3.1,5.6,0,0.00,,,-99.99,Homeseer,2013-04-16 17:12:00,
2013-04-16 13:22:00,0.0,0.0,25.28,SE,135,5.4,5.4,0,0.00,,,-99.99,Homeseer,2013-04-16 17:22:00,
2013-04-16 13:32:00,84.9,72.6,25.28,ESE,112,3.4,6.3,60,0.00,,,-99.99,Homeseer,2013-04-16 17:32:00,
2013-04-16 13:42:00,85.1,72.0,25.28,SE,135,3.8,3.8,58,0.00,,,-99.99,Homeseer,2013-04-16 17:42:00,
2013-04-16 13:52:00,85.1,72.0,25.28,SE,135,3.4,3.4,58,0.00,,,-99.99,Homeseer,2013-04-16 17:52:00,
2013-04-16 14:02:00,85.3,72.1,25.28,ESE,112,5.4,6.0,58,0.00,,,-99.99,Homeseer,2013-04-16 18:02:00,
2013-04-16 14:12:00,84.9,70.5,25.28,SSE,157,4.0,7.4,55,0.00,,,-99.99,Homeseer,2013-04-16 18:12:00,
2013-04-16 14:22:00,85.5,71.5,25.28,SE,135,4.0,6.0,56,0.00,,,-99.99,Homeseer,2013-04-16 18:22:00,
2013-04-16 14:32:00,84.6,71.1,25.28,SE,135,4.5,4.5,57,0.00,,,-99.99,Homeseer,2013-04-16 18:32:00,
2013-04-16 14:42:00,83.8,71.9,25.28,ESE,112,2.7,3.6,61,0.00,,,-99.99,Homeseer,2013-04-16 18:42:00,
2013-04-16 14:52:00,84.0,72.1,25.28,SE,135,4.3,4.7,61,0.00,,,-99.99,Homeseer,2013-04-16 18:52:00,
2013-04-16 15:02:00,84.4,70.9,25.28,SE,135,5.4,5.4,57,0.00,,,-99.99,Homeseer,2013-04-16 19:02:00,
2013-04-16 15:12:00,85.1,71.1,25.28,SE,135,6.0,6.0,56,0.00,,,-99.99,Homeseer,2013-04-16 19:12:00,
2013-04-16 15:22:00,85.1,70.3,25.28,ESE,112,4.0,7.6,54,0.00,,,-99.99,Homeseer,2013-04-16 19:22:00,
2013-04-16 15:32:00,85.1,69.0,25.28,East,90,4.5,4.5,51,0.00,,,-99.99,Homeseer,2013-04-16 19:32:00,
2013-04-16 15:42:00,84.9,69.3,25.28,SSE,157,4.9,5.4,52,0.00,,,-99.99,Homeseer,2013-04-16 19:42:00,
2013-04-16 15:52:00,85.3,70.1,25.28,ESE,112,4.9,4.9,53,0.00,,,-99.99,Homeseer,2013-04-16 19:52:00,
2013-04-16 16:02:00,85.6,70.8,25.28,ESE,112,3.8,3.8,54,0.00,,,-99.99,Homeseer,2013-04-16 20:02:00,
2013-04-16 16:12:00,84.2,70.3,25.28,SSE,157,4.5,4.5,56,0.00,,,-99.99,Homeseer,2013-04-16 20:12:00,
2013-04-16 16:22:00,84.4,70.5,25.28,SE,135,6.9,6.9,56,0.00,,,-99.99,Homeseer,2013-04-16 20:22:00,
2013-04-16 16:32:00,83.8,71.1,25.28,SE,135,4.9,6.3,59,0.00,,,-99.99,Homeseer,2013-04-16 20:32:00,
2013-04-16 16:42:00,84.0,70.1,25.28,SE,135,3.6,7.6,56,0.00,,,-99.99,Homeseer,2013-04-16 20:42:00,
2013-04-16 16:52:00,83.8,71.1,25.28,ESE,112,6.0,6.5,59,0.00,,,-99.99,Homeseer,2013-04-16 20:52:00,
2013-04-16 17:02:00,83.3,70.3,25.28,SE,135,6.9,7.4,58,0.00,,,-99.99,Homeseer,2013-04-16 21:02:00,
2013-04-16 17:12:00,83.1,72.0,25.28,SSE,157,4.7,4.7,63,0.00,,,-99.99,Homeseer,2013-04-16 21:12:00,
2013-04-16 17:22:00,82.6,71.2,25.28,East,90,5.4,6.3,62,0.00,,,-99.99,Homeseer,2013-04-16 21:22:00,
2013-04-16 17:32:00,82.8,70.6,25.28,SE,135,4.5,7.6,60,0.00,,,-99.99,Homeseer,2013-04-16 21:32:00,
2013-04-16 17:42:00,81.0,72.1,25.28,SE,135,5.4,5.6,69,0.00,,,-99.99,Homeseer,2013-04-16 21:42:00,
2013-04-16 17:52:00,81.0,73.8,25.28,North,0,4.3,4.3,74,0.00,,,-99.99,Homeseer,2013-04-16 21:52:00,
2013-04-16 18:02:00,78.8,76.0,25.28,South,180,1.6,2.5,89,0.59,,,-99.99,Homeseer,2013-04-16 22:02:00,
2013-04-16 18:12:00,79.7,76.9,25.28,SSE,157,3.6,3.6,89,0.59,,,-99.99,Homeseer,2013-04-16 22:12:00,
2013-04-16 18:22:00,79.5,76.4,25.28,East,90,4.0,7.4,88,0.59,,,-99.99,Homeseer,2013-04-16 22:22:00,
2013-04-16 18:32:00,79.3,76.2,25.28,SSE,157,4.9,4.9,88,0.59,,,-99.99,Homeseer,2013-04-16 22:32:00,
2013-04-16 18:42:00,79.3,76.5,25.28,ESE,112,5.6,5.6,89,0.59,,,-99.99,Homeseer,2013-04-16 22:42:00,
2013-04-16 18:52:00,79.3,76.2,25.28,ENE,67,5.4,6.0,88,0.59,,,-99.99,Homeseer,2013-04-16 22:52:00,
2013-04-16 19:02:00,79.2,76.1,25.28,ENE,67,5.4,6.0,88,0.59,,,-99.99,Homeseer,2013-04-16 23:02:00,
2013-04-16 19:12:00,79.0,75.7,25.28,ENE,67,5.4,6.0,87,0.59,,,-99.99,Homeseer,2013-04-16 23:12:00,
2013-04-16 19:22:00,79.0,75.7,25.28,ENE,67,5.4,6.0,87,0.59,,,-99.99,Homeseer,2013-04-16 23:22:00,
2013-04-16 19:32:00,78.8,75.7,25.28,ENE,67,5.4,6.0,88,0.59,,,-99.99,Homeseer,2013-04-16 23:32:00,
2013-04-16 19:42:00,78.3,75.5,25.28,ENE,67,5.4,6.0,89,0.59,,,-99.99,Homeseer,2013-04-16 23:42:00,
2013-04-16 19:52:00,77.2,75.0,25.28,North,0,0.0,0.0,91,0.03,,,-99.99,Homeseer,2013-04-16 23:52:00,
2013-04-16 20:02:00,77.4,75.9,25.28,North,0,0.0,0.0,94,0.03,,,-99.99,Homeseer,2013-04-17 00:02:00,
2013-04-16 20:12:00,77.7,75.2,25.28,North,0,0.0,0.0,90,0.03,,,-99.99,Homeseer,2013-04-17 00:12:00,
2013-04-16 20:22:00,77.7,75.4,25.28,North,0,0.0,0.0,91,0.03,,,-99.99,Homeseer,2013-04-17 00:22:00,
2013-04-16 20:32:00,77.7,74.7,25.28,SE,135,5.8,5.8,88,0.03,,,-99.99,Homeseer,2013-04-17 00:32:00,
2013-04-16 20:42:00,77.7,73.8,25.28,SE,135,5.8,5.8,85,0.03,,,-99.99,Homeseer,2013-04-17 00:42:00,
2013-04-16 20:52:00,77.9,74.3,25.28,SE,135,5.8,5.8,86,0.03,,,-99.99,Homeseer,2013-04-17 00:52:00,
2013-04-16 21:02:00,77.7,74.1,25.28,SE,135,5.8,5.8,86,0.03,,,-99.99,Homeseer,2013-04-17 01:02:00,
2013-04-16 21:12:00,77.9,73.8,25.28,SE,135,5.8,5.8,84,0.03,,,-99.99,Homeseer,2013-04-17 01:12:00,
2013-04-16 21:22:00,77.7,73.8,25.28,SE,135,5.8,5.8,85,0.03,,,-99.99,Homeseer,2013-04-17 01:22:00,
2013-04-16 21:32:00,77.7,73.8,25.28,North,0,0.0,0.0,85,0.03,,,-99.99,Homeseer,2013-04-17 01:32:00,
2013-04-16 21:42:00,77.7,74.1,25.28,North,0,0.0,0.0,86,0.03,,,-99.99,Homeseer,2013-04-17 01:42:00,
2013-04-16 21:52:00,77.7,74.1,25.28,North,0,0.0,0.0,86,0.03,,,-99.99,Homeseer,2013-04-17 01:52:00,
2013-04-16 22:02:00,77.7,73.6,25.28,North,0,0.0,0.0,84,0.00,,,-99.99,Homeseer,2013-04-17 02:02:00,
2013-04-16 22:12:00,77.7,73.6,25.28,North,0,0.0,0.0,84,0.00,,,-99.99,Homeseer,2013-04-17 02:12:00,
2013-04-16 22:22:00,77.5,72.5,25.28,North,0,0.0,0.0,81,0.00,,,-99.99,Homeseer,2013-04-17 02:22:00,
2013-04-16 22:32:00,77.5,72.2,25.28,North,0,0.0,0.0,80,0.00,,,-99.99,Homeseer,2013-04-17 02:32:00,
2013-04-16 22:42:00,77.5,72.5,25.28,North,0,0.0,0.0,81,0.00,,,-99.99,Homeseer,2013-04-17 02:42:00,
2013-04-16 22:52:00,77.5,72.5,25.28,North,0,0.0,0.0,81,0.00,,,-99.99,Homeseer,2013-04-17 02:52:00,
2013-04-16 23:02:00,77.5,73.1,25.28,North,0,0.0,0.0,83,0.00,,,-99.99,Homeseer,2013-04-17 03:02:00,
2013-04-16 23:12:00,77.4,73.3,25.28,North,0,0.0,0.0,84,0.00,,,-99.99,Homeseer,2013-04-17 03:12:00,
2013-04-16 23:22:00,77.4,73.0,25.28,North,0,0.0,0.0,83,0.00,,,-99.99,Homeseer,2013-04-17 03:22:00,
2013-04-16 23:32:00,77.4,73.3,25.28,North,0,0.0,0.0,84,0.00,,,-99.99,Homeseer,2013-04-17 03:32:00,
2013-04-16 23:42:00,77.4,72.7,25.28,North,0,0.0,0.0,82,0.00,,,-99.99,Homeseer,2013-04-17 03:42:00,
2013-04-16 23:52:00,77.4,73.3,25.28,North,0,0.0,0.0,84,0.00,,,-99.99,Homeseer,2013-04-17 03:52:00,